Temperature
29 30 30 30 30 31 30 31 30 30 30 30 30 30 29 28 28 27 26 25 24 23 22 22 22 21 21 20 20 20 19 19 19 18 18 18 18 18 18 18 17 17 17 17
28 30 30 30 30 31 31 31 31 31 30 31 30 30 29 28 27 26 25 24 23 22 21 21 21 20 20 20 19 19 19 19 18 18 18 18 17 17 17 17 17 17 17 17
27 29 29 29 30 30 31 31 31 30 30 30 29 29 28 27 26 25 24 23 22 21 20 20 20 20 19 19 19 19 19 18 18 18 17 17 17 17 17 17 17 17 17 16
27 27 26 29 31 31 31 31 31 30 30 29 29 28 27 26 25 24 23 22 21 20 20 19 19 19 19 19 19 19 18 18 17 17 17 17 17 16 16 16 16 16 16 16
26 26 27 28 30 30 29 29 30 29 29 29 28 27 25 24 23 23 22 21 20 20 19 19 19 19 19 18 18 18 17 17 17 17 17 16 16 16 16 16 16 15 15 15
25 25 25 27 30 30 29 27 29 28 28 27 27 26 24 23 22 21 21 20 20 19 19 18 18 18 18 18 17 17 17 17 17 16 16 16 16 16 15 15 15 15 15 15
24 24 25 27 28 29 27 26 27 27 26 26 26 25 22 21 21 20 20 19 19 19 18 18 17 17 17 17 17 16 16 16 16 16 16 16 15 15 15 15 15 15 14 14
24 23 23 26 27 26 25 25 26 26 25 24 23 22 21 20 20 19 19 18 18 18 17 17 17 17 16 16 16 16 16 16 15 15 15 15 15 15 15 15 14 14 14 14
24 23 23 24 23 23 24 24 24 24 23 22 22 21 20 19 19 19 18 18 17 17 17 16 16 16 16 15 15 15 15 15 15 15 15 15 15 14 14 14 14 13 13 13
23 23 23 23 22 23 23 23 23 22 22 21 21 20 19 18 18 17 17 17 17 16 16 16 15 15 15 15 15 15 15 14 14 14 14 14 14 14 14 13 13 13 13 12
22 22 22 22 22 22 22 21 21 21 20 20 19 19 18 17 17 17 16 16 16 16 15 15 15 15 15 15 14 14 14 14 14 14 14 14 14 13 13 13 13 12 12 12
21 21 21 21 21 21 21 20 20 20 19 19 18 18 17 16 16 16 16 15 15 15 15 14 14 14 14 14 14 14 14 13 13 13 13 13 13 12 12 12 12 12 12 12
20 20 20 20 20 20 20 19 19 19 18 18 17 17 16 16 15 15 15 15 14 14 14 14 14 14 14 13 13 13 13 13 13 13 12 12 12 12 11 11 11 11 11 11
19 19 19 19 19 19 19 18 18 17 17 17 16 16 16 15 15 14 14 14 14 14 13 13 13 13 13 13 13 13 13 13 12 12 12 12 11 11 11 11 11 10 10 10
18 18 18 18 18 18 18 17 17 17 16 16 16 15 15 15 14 14 14 13 13 13 13 13 13 12 12 12 12 12 12 12 12 12 12 11 11 11 11 11 10 10 10 10
18 18 18 17 17 17 17 17 16 16 15 15 15 15 14 14 13 13 13 13 13 13 12 12 12 12 12 12 12 12 12 12 12 11 11 11 11 11 10 10 10 10 9 9
17 17 17 17 16 16 16 16 16 15 15 14 14 14 13 13 13 12 12 12 12 12 12 12 12 12 12 12 12 12 11 11 11 11 11 11 10 10 10 10 10 9 9 9
16 16 16 16 16 16 16 15 15 14 14 14 13 13 13 13 12 12 12 12 12 11 11 11 11 11 11 11 12 11 11 11 11 11 10 10 10 10 10 10 9 9 9 9
16 16 15 15 15 15 15 14 14 14 13 13 13 12 12 12 12 11 11 11 11 11 11 11 11 11 11 11 11 11 11 11 10 10 10 10 10 10 10 9 9 9 9 8
15 15 15 15 14 14 14 13 13 13 13 13 12 12 11 11 11 11 11 10 10 10 10 10 10 11 11 11 11 11 10 10 10 10 10 10 9 9 9 9 9 9 8 8
14 14 14 14 13 13 13 13 12 12 12 12 12 11 11 11 10 10 10 10 10 10 10 10 10 10 10 10 10 10 10 10 10 10 10 9 9 9 9 9 9 8 8 8
14 13 13 13 12 12 12 12 12 12 11 11 11 11 10 10 10 10 10 10 9 9 10 10 10 10 10 10 10 10 10 10 10 9 9 9 9 9 9 8 8 8 7 7
12 12 12 12 12 12 11 11 11 11 11 11 11 10 10 10 10 10 9 9 9 9 9 9 10 10 10 10 10 9 9 9 9 9 9 9 9 8 8 8 7 7 7 7
12 12 11 11 11 11 11 11 11 11 11 10 10 10 10 10 9 9 9 9 9 9 9 9 9 9 9 9 9 9 9 9 9 9 9 9 8 8 8 7 7 7 7 6
11 11 11 10 10 10 10 10 10 10 10 10 10 10 10 10 9 9 9 9 9 9 9 9 9 9 9 9 9 9 9 9 9 9 8 8 8 8 7 7 7 7 6 6
10 10 10 10 10 10 10 10 10 10 10 10 10 10 10 9 9 9 9 9 9 9 9 8 9 9 9 9 9 9 8 8 8 8 8 8 7 7 7 7 6 6 6 6
10 10 10 10 10 10 10 10 10 10 10 10 10 9 9 9 9 9 9 9 8 8 8 8 9 9 9 8 8 8 8 8 8 8 8 7 7 7 7 6 6 6 6 5
Wind_Speed
14 12 16 19 19 19 18 16 13 10 9 11 10 9 10 10 10 10 10 9 9 7 7 7 7 6 6 6 5 5 5 5 4 3 3 3 3 3 3 2 2 2 2 1
14 13 14 16 19 19 18 16 14 10 6 8 8 9 10 10 10 9 9 9 9 8 7 6 6 6 6 6 5 6 6 5 4 4 4 4 4 4 4 3 3 2 1 2
12 12 12 15 15 16 15 14 12 10 5 7 7 8 9 10 9 9 8 9 9 8 6 6 6 6 6 6 6 6 6 5 5 5 5 4 4 4 4 3 3 2 3 4
9 10 13 10 12 13 13 11 9 6 6 7 8 9 8 8 8 9 8 9 8 8 7 6 6 7 6 7 7 7 6 6 5 5 4 4 4 4 4 3 3 4 4 4
8 11 10 7 9 10 10 8 8 7 6 7 8 9 7 8 9 9 9 9 8 8 8 8 8 7 7 7 7 7 6 5 5 4 4 4 4 4 4 4 4 5 5 6
7 8 8 7 7 6 7 6 5 6 5 6 6 5 6 9 11 10 10 9 8 9 10 9 8 7 8 8 7 6 6 5 5 4 4 5 5 5 4 4 5 6 7 6
10 7 4 1 3 7 8 4 4 6 6 4 3 5 10 11 11 10 10 10 9 10 9 8 7 7 8 8 7 6 6 6 6 6 5 5 5 5 5 5 6 6 6 6
9 8 4 3 1 3 6 7 7 7 7 9 11 13 13 12 11 10 10 10 10 9 9 8 8 8 9 8 7 7 7 7 7 6 6 6 6 5 5 5 6 5 5 5
3 3 5 6 7 7 7 8 7 6 8 10 10 12 12 11 10 9 9 9 9 10 9 8 8 8 9 7 7 8 8 8 7 7 7 6 6 6 5 4 5 5 5 6
3 5 7 7 6 7 8 7 7 8 8 8 10 11 12 10 10 9 8 9 9 10 10 9 9 9 8 8 7 9 9 8 7 8 9 9 8 7 6 6 5 5 5 5
4 4 6 7 6 7 7 8 9 7 8 8 9 10 11 10 9 8 8 8 9 9 10 10 9 8 8 8 8 9 8 8 8 9 10 10 10 10 9 8 6 6 6 6
3 4 4 5 5 5 6 7 8 7 7 8 9 10 11 9 8 8 9 9 9 10 10 9 9 8 8 7 7 8 8 7 7 8 8 9 10 11 16 13 16 16 13 10
3 5 5 5 4 4 6 7 7 7 7 8 8 9 10 9 8 9 9 9 10 10 10 9 9 9 7 7 7 7 8 7 6 7 7 8 8 8 9 10 13 14 13 12
4 4 4 4 4 5 6 7 8 8 8 8 8 9 10 10 10 10 9 9 10 10 10 9 9 8 7 7 7 8 8 7 7 6 7 7 7 7 7 7 7 6 7 8
1 2 4 4 5 5 5 7 8 8 8 7 7 8 10 10 10 10 9 9 10 10 9 9 9 8 7 7 7 7 7 6 6 6 6 6 6 6 7 7 7 6 5 4
2 3 4 5 5 5 5 6 7 7 7 8 8 9 10 10 11 10 10 9 9 10 9 9 9 8 7 7 7 6 6 8 6 6 6 6 6 6 6 6 6 6 6 4
3 4 5 4 4 4 5 6 7 8 8 9 9 10 11 11 11 10 9 9 9 9 9 9 8 7 7 7 7 6 7 7 7 6 6 6 6 6 6 6 6 6 6 6
4 4 5 5 4 4 5 7 8 9 8 9 10 10 10 10 11 10 10 10 10 10 8 8 7 7 7 7 6 6 6 6 6 7 6 6 6 6 7 7 7 7 6 6
5 5 5 5 5 5 6 8 9 9 9 9 10 10 9 10 11 11 11 10 10 9 7 7 8 8 8 7 6 6 7 7 7 7 7 7 6 6 6 6 6 6 5 5
5 6 6 5 6 7 8 9 10 10 10 10 12 12 11 11 11 11 11 9 7 6 7 7 7 7 7 6 5 6 7 7 8 7 6 6 6 5 5 6 6 6 6 5
6 7 8 8 9 9 9 9 10 11 11 11 12 12 12 11 10 10 10 9 7 7 7 7 6 6 6 5 6 6 6 7 7 6 6 6 5 5 5 5 5 5 5 5
7 8 9 10 10 9 8 8 9 11 12 11 13 13 13 12 11 10 9 7 8 6 5 6 6 6 6 5 6 6 6 6 6 5 5 5 5 5 5 6 6 5 5 5
8 9 10 11 11 10 9 9 10 11 12 12 12 12 12 10 9 9 9 6 7 7 7 7 7 7 6 5 6 6 6 6 6 5 5 5 5 5 5 6 5 5 5 4
9 10 11 11 12 12 11 11 11 10 11 11 11 11 11 10 8 8 9 10 9 9 8 8 7 5 3 4 5 6 6 6 5 5 5 5 5 5 5 5 5 5 4 5
11 11 11 12 11 10 11 12 12 11 12 10 11 10 9 8 9 9 10 10 11 10 9 7 5 3 3 6 6 7 6 6 6 5 5 5 5 5 5 5 4 4 3 3
10 10 9 9 9 9 9 10 10 10 10 10 9 9 9 9 10 10 9 10 11 9 8 7 5 4 5 6 7 7 6 6 5 5 6 5 5 5 5 4 4 3 3 4
10 9 8 8 8 8 8 9 9 10 10 10 10 10 10 10 9 9 10 10 9 9 8 7 6 5 6 6 6 6 5 5 5 5 5 5 5 4 4 3 4 4 4 4
Wind_Direction
255 233 205 207 214 218 222 227 232 221 195 170 164 154 142 139 140 135 127 120 110 103 101 105 107 111 114 121 124 128 128 130 131 132 131 127 127 125 123 130 139 122 130 144
245 249 215 208 209 215 219 222 230 233 206 153 138 132 138 142 138 132 124 120 113 108 106 112 117 117 113 111 111 112 116 119 116 117 113 112 118 116 114 106 94 94 83 75
236 236 221 215 211 212 217 219 224 223 198 136 141 137 134 131 133 133 130 122 114 112 109 108 110 111 115 115 113 110 111 110 108 109 106 105 104 102 101 99 92 84 78 80
239 230 222 218 208 214 216 215 211 199 173 150 132 112 109 120 126 130 126 119 113 111 114 111 111 110 111 113 112 107 104 106 107 111 110 104 102 95 94 93 87 79 74 76
236 223 215 217 201 202 205 208 194 185 167 136 128 118 107 105 113 119 122 119 117 122 120 113 109 109 108 103 101 103 103 102 104 103 104 103 105 100 98 95 87 81 74 67
233 229 215 201 193 185 185 200 178 156 145 149 150 155 125 107 106 108 111 114 116 115 109 105 103 102 102 100 96 94 93 88 89 90 97 101 104 103 99 97 92 85 78 70
234 232 231 297 194 189 198 166 116 126 131 140 119 101 110 108 105 106 108 111 107 106 104 100 99 100 98 94 89 86 88 86 82 79 83 94 97 98 97 95 91 90 88 77
227 231 215 15 167 156 92 79 81 91 105 97 93 105 111 113 111 113 112 111 111 107 102 98 98 98 94 89 88 87 86 84 79 74 77 85 92 94 96 99 97 91 89 79
205 160 98 66 67 82 91 89 84 84 97 106 110 114 115 113 111 111 112 112 110 110 106 97 92 95 96 90 90 90 87 83 79 75 70 71 79 84 89 88 88 85 81 74
102 112 103 94 91 87 86 89 94 100 107 111 113 116 116 112 110 108 108 108 111 109 105 98 93 92 95 97 97 97 93 88 85 82 75 62 59 59 60 58 68 80 80 79
156 128 99 90 79 80 89 98 101 104 107 113 115 118 119 116 113 112 111 107 106 107 106 102 98 95 94 96 98 98 94 91 87 83 82 73 65 54 60 51 50 65 70 72
158 135 129 109 93 93 96 100 105 106 105 110 116 119 118 116 113 111 113 112 111 109 107 104 100 94 90 94 103 106 103 97 95 95 95 94 90 76 56 62 60 61 63 77
100 92 103 109 99 95 102 108 108 108 111 112 116 121 121 118 116 114 113 116 116 113 110 107 103 98 95 97 99 100 102 99 99 101 102 105 107 104 94 71 63 60 60 66
94 100 104 98 91 93 106 112 112 110 108 110 118 120 119 116 115 114 114 113 115 112 111 108 104 99 98 102 102 102 104 102 103 101 103 105 106 107 109 107 96 80 65 62
117 131 134 124 112 106 113 119 122 119 116 118 123 122 121 119 118 114 111 109 111 110 108 106 103 100 98 105 105 105 105 105 99 100 101 103 104 103 101 99 97 100 97 74
173 159 149 142 141 145 147 139 133 127 126 126 120 116 115 114 114 114 115 114 114 112 111 111 110 109 106 105 103 100 95 97 100 104 105 105 102 101 100 97 90 83 79 74
188 177 160 157 161 164 156 144 136 132 127 124 121 120 119 118 116 114 110 107 106 107 108 110 111 110 109 110 112 110 108 104 104 103 98 96 96 94 90 90 89 86 76 58
199 184 171 165 169 164 148 137 133 129 128 129 127 125 126 127 124 119 115 112 109 104 104 110 114 112 108 103 104 107 107 107 101 95 92 90 91 93 94 92 92 93 96 84
194 183 177 168 158 150 141 132 130 130 130 131 127 123 122 121 120 118 115 114 113 108 99 99 105 106 102 94 98 108 105 102 97 93 95 93 89 91 94 93 91 89 89 89
187 168 160 157 143 133 127 129 131 130 130 129 124 119 117 115 117 117 111 103 98 101 106 107 110 106 107 97 94 101 100 102 101 101 100 96 95 95 95 94 93 90 87 84
169 156 145 135 128 126 128 130 132 132 129 128 127 125 121 118 117 116 113 105 96 95 105 106 102 101 100 98 99 101 102 104 103 99 100 100 99 96 91 89 87 85 83 78
149 141 132 129 126 123 123 127 131 129 127 126 125 124 122 120 116 107 99 105 111 105 109 105 98 86 85 99 103 104 104 104 102 101 102 104 103 99 93 89 85 80 76 72
137 134 131 131 130 128 124 125 126 125 126 126 125 126 124 121 121 119 113 107 112 106 98 91 82 72 67 101 107 107 105 103 101 100 100 100 101 100 98 94 90 86 84 77
126 124 126 128 125 123 120 119 117 118 121 122 123 124 123 119 113 110 114 118 114 114 105 97 84 64 54 112 109 108 106 104 101 101 102 101 98 96 97 95 92 86 79 76
124 122 124 128 127 125 124 125 123 124 124 121 119 118 118 116 119 119 120 123 125 121 115 112 101 87 106 101 99 96 94 91 93 94 92 92 96 97 95 92 87 83 78 71
123 124 125 128 126 131 134 134 134 133 128 126 125 122 116 117 119 123 125 128 126 125 124 124 126 128 109 104 105 104 105 109 106 101 96 95 92 90 85 85 89 79 73 70
119 118 119 119 122 128 130 132 132 132 132 131 129 130 130 131 131 132 130 131 133 133 131 134 134 130 121 115 110 108 108 105 101 100 100 98 96 92 90 85 80 75 68 73
Height
1446 1440 1443 1449 1452 1452 1456 1458 1464 1463 1463 1463 1462 1465 1470 1476 1481 1485 1489 1493 1496 1499 1501 1503 1505 1507 1508 1510 1511 1514 1515 1516 1518 1520 1521 1522 1523 1524 1525 1527 1528 1529 1530 1530
1451 1441 1440 1445 1446 1448 1451 1452 1455 1457 1459 1456 1461 1466 1471 1477 1482 1486 1490 1494 1497 1500 1502 1504 1506 1507 1509 1511 1512 1514 1515 1516 1518 1519 1520 1521 1522 1523 1525 1525 1527 1527 1528 1529
1456 1445 1444 1454 1445 1446 1448 1448 1452 1460 1460 1459 1464 1469 1473 1478 1483 1487 1491 1495 1498 1501 1503 1505 1506 1507 1509 1510 1512 1514 1515 1516 1517 1518 1519 1520 1521 1522 1524 1525 1525 1526 1526 1527
1457 1456 1469 1449 1436 1440 1445 1447 1449 1453 1457 1461 1466 1471 1476 1480 1484 1488 1492 1496 1498 1501 1503 1505 1506 1508 1509 1511 1513 1514 1515 1516 1517 1518 1519 1520 1521 1522 1523 1524 1525 1525 1525 1526
1460 1462 1459 1446 1438 1440 1448 1452 1450 1455 1459 1464 1468 1473 1479 1482 1485 1489 1493 1496 1499 1502 1504 1505 1507 1508 1510 1511 1513 1514 1515 1516 1517 1518 1519 1520 1521 1522 1523 1524 1525 1525 1525 1525
1461 1467 1468 1452 1440 1441 1447 1460 1453 1456 1461 1465 1469 1475 1482 1485 1487 1491 1494 1497 1500 1503 1505 1506 1508 1509 1510 1511 1513 1514 1515 1516 1517 1518 1519 1520 1521 1522 1523 1524 1525 1525 1525 1526
1462 1465 1459 1446 1443 1445 1462 1465 1457 1459 1464 1468 1470 1476 1483 1486 1489 1493 1496 1498 1501 1503 1505 1507 1509 1510 1511 1512 1513 1515 1516 1517 1518 1518 1519 1520 1521 1522 1523 1524 1525 1525 1526 1526
1460 1467 1468 1450 1448 1453 1460 1460 1461 1464 1467 1471 1475 1479 1484 1487 1491 1495 1498 1500 1502 1504 1506 1508 1509 1511 1512 1513 1515 1515 1516 1517 1518 1519 1520 1521 1522 1522 1524 1525 1525 1526 1527 1527
1454 1461 1458 1457 1458 1462 1462 1464 1467 1469 1472 1475 1478 1483 1486 1490 1493 1497 1499 1501 1503 1505 1507 1509 1511 1512 1513 1514 1515 1516 1517 1518 1519 1520 1521 1522 1523 1524 1525 1526 1526 1527 1528 1528
1455 1458 1459 1461 1463 1465 1466 1468 1470 1472 1475 1478 1481 1485 1488 1491 1495 1498 1500 1502 1504 1506 1508 1510 1512 1513 1514 1516 1517 1517 1518 1519 1520 1521 1521 1522 1523 1524 1525 1526 1527 1528 1529 1529
1459 1462 1463 1466 1467 1469 1470 1472 1474 1476 1478 1481 1483 1487 1490 1493 1496 1499 1501 1503 1505 1507 1509 1511 1512 1514 1516 1517 1518 1518 1519 1521 1521 1522 1523 1524 1525 1526 1527 1528 1529 1529 1530 1531
1461 1463 1466 1469 1471 1472 1473 1474 1476 1479 1481 1484 1486 1489 1492 1495 1497 1500 1502 1504 1506 1508 1510 1512 1513 1515 1517 1518 1520 1520 1521 1522 1523 1524 1525 1526 1527 1528 1529 1530 1531 1532 1533 1533
1461 1464 1467 1470 1472 1473 1475 1477 1479 1481 1483 1486 1489 1491 1493 1496 1499 1501 1504 1506 1508 1509 1511 1513 1514 1516 1518 1520 1521 1522 1523 1525 1526 1527 1528 1529 1530 1531 1532 1533 1534 1535 1535 1535
1464 1466 1469 1471 1473 1475 1476 1478 1481 1483 1485 1488 1490 1493 1495 1497 1500 1502 1505 1507 1509 1511 1512 1514 1516 1518 1520 1521 1523 1524 1526 1527 1528 1529 1530 1532 1533 1534 1535 1535 1536 1537 1538 1538
1466 1468 1471 1473 1475 1477 1478 1480 1482 1484 1487 1489 1492 1494 1496 1498 1501 1503 1506 1508 1510 1512 1514 1516 1517 1520 1522 1523 1525 1526 1528 1529 1531 1532 1533 1535 1536 1538 1538 1539 1539 1540 1540 1541
1468 1470 1471 1474 1476 1478 1480 1482 1483 1486 1488 1490 1493 1495 1497 1500 1502 1505 1507 1509 1511 1513 1515 1517 1519 1521 1523 1525 1526 1528 1530 1531 1533 1534 1536 1537 1539 1540 1541 1541 1542 1543 1543 1543
1468 1470 1472 1474 1476 1478 1480 1482 1484 1486 1489 1491 1494 1496 1499 1501 1504 1506 1509 1511 1513 1515 1517 1519 1521 1523 1525 1527 1529 1530 1532 1534 1535 1537 1538 1539 1541 1542 1543 1543 1544 1544 1545 1545
1467 1469 1471 1474 1476 1478 1480 1482 1485 1487 1489 1492 1495 1498 1500 1503 1505 1508 1510 1512 1515 1517 1519 1521 1523 1525 1527 1529 1530 1532 1534 1536 1538 1539 1540 1542 1543 1544 1544 1545 1546 1546 1546 1546
1467 1469 1471 1474 1476 1478 1480 1482 1485 1487 1490 1493 1496 1499 1502 1505 1507 1509 1512 1514 1516 1519 1521 1523 1525 1527 1529 1531 1533 1534 1536 1538 1539 1541 1542 1544 1545 1546 1546 1547 1547 1548 1548 1548
1466 1468 1470 1473 1476 1478 1480 1483 1485 1488 1491 1494 1497 1500 1503 1506 1509 1511 1514 1516 1518 1520 1523 1525 1527 1529 1531 1533 1534 1537 1538 1540 1541 1543 1544 1545 1546 1547 1548 1549 1549 1549 1550 1550
1465 1467 1470 1473 1476 1478 1481 1484 1486 1489 1492 1495 1498 1501 1505 1508 1511 1513 1516 1518 1521 1523 1525 1527 1529 1531 1533 1535 1537 1539 1540 1542 1543 1545 1546 1547 1548 1549 1550 1550 1550 1551 1551 1551
1465 1467 1470 1473 1476 1479 1483 1485 1488 1491 1494 1497 1500 1503 1506 1510 1513 1515 1518 1520 1523 1525 1528 1530 1532 1534 1535 1537 1539 1541 1542 1544 1545 1546 1548 1549 1549 1550 1551 1551 1552 1552 1552 1553
1465 1468 1471 1474 1477 1480 1484 1487 1490 1493 1496 1499 1502 1505 1508 1512 1515 1517 1520 1523 1525 1527 1530 1532 1534 1536 1538 1539 1541 1543 1544 1545 1547 1548 1549 1550 1551 1551 1552 1553 1553 1553 1554 1554
1467 1470 1473 1476 1479 1483 1486 1490 1493 1496 1499 1502 1505 1508 1511 1514 1517 1520 1522 1524 1527 1530 1532 1534 1536 1538 1540 1542 1543 1545 1546 1547 1548 1549 1550 1551 1552 1553 1553 1554 1554 1554 1555 1555
1469 1472 1475 1479 1482 1485 1489 1492 1496 1499 1502 1505 1508 1511 1514 1517 1519 1522 1524 1527 1529 1532 1534 1537 1539 1541 1543 1544 1545 1547 1548 1549 1550 1551 1552 1553 1553 1554 1554 1555 1555 1555 1555 1555
1472 1475 1479 1482 1485 1488 1492 1495 1498 1502 1505 1508 1511 1514 1517 1520 1522 1524 1527 1529 1532 1534 1537 1539 1541 1543 1545 1546 1547 1549 1550 1551 1552 1553 1554 1554 1555 1555 1555 1556 1556 1556 1556 1556
1476 1479 1482 1486 1489 1492 1495 1498 1501 1505 1508 1511 1514 1517 1520 1523 1525 1528 1530 1533 1535 1538 1540 1542 1544 1545 1547 1548 1550 1551 1552 1553 1554 1554 1555 1556 1556 1556 1556 1557 1557 1557 1556 1556